LRS506 MRQP-MROC

Flight info

Callsign LRS506
Flight time 0h 38m
Altitude 8000
Route PARRI COLON
Aircraft C208/L-SDFGR/C

Departure

Time 2026-04-25 00:21
Airport Quepos Managua Airport (MRQP)

Arrival

Time 2026-04-25 00:59
Airport Juan Santamaría International Airport (MROC)
Time Latitude Longitude Altitude Speed Heading
2026-04-25 00:20 9.46163 -84.18224 2675 ft 125 kts 294°
2026-04-25 00:21 9.46518 -84.19037 2899 ft 125 kts 294°
2026-04-25 00:21 9.46755 -84.19568 3046 ft 125 kts 295°
2026-04-25 00:21 9.47118 -84.20370 3273 ft 125 kts 295°
2026-04-25 00:21 9.47599 -84.21430 3554 ft 125 kts 294°
2026-04-25 00:22 9.47961 -84.22227 3807 ft 124 kts 295°
2026-04-25 00:22 9.48319 -84.23014 4060 ft 122 kts 295°
2026-04-25 00:22 9.48555 -84.23533 4233 ft 123 kts 294°
2026-04-25 00:22 9.48912 -84.24317 4472 ft 122 kts 295°
2026-04-25 00:23 9.49265 -84.25094 4690 ft 122 kts 294°
2026-04-25 00:23 9.49619 -84.25875 4889 ft 122 kts 294°
2026-04-25 00:23 9.49976 -84.26656 5077 ft 122 kts 294°
2026-04-25 00:23 9.50329 -84.27437 5258 ft 122 kts 294°
2026-04-25 00:24 9.50686 -84.28220 5458 ft 123 kts 295°
2026-04-25 00:24 9.51052 -84.29027 5662 ft 130 kts 294°
2026-04-25 00:24 9.51442 -84.29881 5883 ft 136 kts 294°
2026-04-25 00:24 9.51864 -84.30759 6104 ft 141 kts 304°
2026-04-25 00:25 9.52625 -84.31386 6342 ft 144 kts 335°
2026-04-25 00:25 9.53617 -84.31545 6554 ft 147 kts
2026-04-25 00:25 9.54623 -84.31331 6773 ft 148 kts 12°
2026-04-25 00:25 9.55635 -84.31109 6983 ft 149 kts 12°
2026-04-25 00:26 9.56655 -84.30889 7189 ft 150 kts 12°
2026-04-25 00:26 9.57673 -84.30668 7406 ft 150 kts 12°
2026-04-25 00:26 9.58693 -84.30447 7618 ft 150 kts 12°
2026-04-25 00:26 9.59701 -84.30229 7830 ft 150 kts 12°
2026-04-25 00:27 9.60734 -84.30005 7952 ft 157 kts 12°
2026-04-25 00:27 9.61839 -84.29765 7955 ft 167 kts 12°
2026-04-25 00:27 9.62994 -84.29514 7957 ft 172 kts 12°
2026-04-25 00:27 9.64175 -84.29258 7977 ft 175 kts 12°
2026-04-25 00:28 9.65372 -84.28999 7978 ft 177 kts 12°
2026-04-25 00:28 9.65714 -84.28924 7977 ft 177 kts 12°
2026-04-25 00:49 9.66053 -84.28851 7978 ft 177 kts 12°
2026-04-25 00:49 9.67259 -84.28590 7980 ft 177 kts 12°
2026-04-25 00:49 9.68466 -84.28328 7981 ft 178 kts 12°
2026-04-25 00:49 9.69683 -84.28065 7935 ft 181 kts 12°
2026-04-25 00:50 9.70843 -84.27813 7895 ft 181 kts 12°
2026-04-25 00:50 9.72073 -84.27547 7892 ft 179 kts 12°
2026-04-25 00:50 9.73305 -84.27280 7892 ft 178 kts 12°
2026-04-25 00:50 9.74507 -84.27020 7894 ft 178 kts 12°
2026-04-25 00:51 9.75719 -84.26758 7894 ft 178 kts 12°
2026-04-25 00:51 9.76929 -84.26496 7896 ft 178 kts 12°
2026-04-25 00:51 9.78141 -84.26233 7895 ft 178 kts 12°
2026-04-25 00:51 9.79358 -84.25970 7918 ft 179 kts 12°
2026-04-25 00:52 9.80574 -84.25705 7917 ft 179 kts 11°
2026-04-25 00:52 9.81794 -84.25441 7916 ft 180 kts 11°
2026-04-25 00:52 9.83023 -84.25175 7834 ft 181 kts 11°
2026-04-25 00:52 9.84253 -84.24907 7651 ft 181 kts 11°
2026-04-25 00:53 9.85479 -84.24640 7532 ft 180 kts 12°
2026-04-25 00:53 9.86687 -84.24378 7315 ft 180 kts 11°
2026-04-25 00:53 9.87908 -84.24113 7091 ft 179 kts 11°
2026-04-25 00:53 9.89127 -84.23848 6864 ft 179 kts 12°
2026-04-25 00:54 9.90338 -84.23587 6636 ft 177 kts 10°
2026-04-25 00:54 9.91554 -84.23402 6376 ft 176 kts
2026-04-25 00:54 9.92754 -84.23193 6025 ft 172 kts
2026-04-25 00:54 9.93926 -84.23051 5650 ft 168 kts 355°
2026-04-25 00:55 9.94930 -84.23555 5300 ft 164 kts 311°
2026-04-25 00:55 9.95537 -84.24212 5044 ft 160 kts 316°
2026-04-25 00:55 9.96359 -84.24938 4732 ft 149 kts 318°
2026-04-25 00:55 9.97141 -84.25584 4435 ft 146 kts 325°
2026-04-25 00:56 9.98128 -84.25745 4281 ft 146 kts
2026-04-25 00:56 9.99076 -84.25444 4149 ft 141 kts 17°
2026-04-25 00:56 10.00006 -84.25368 4022 ft 135 kts 337°
2026-04-25 00:56 10.00592 -84.26014 3992 ft 120 kts 291°
2026-04-25 00:57 10.00447 -84.26765 3990 ft 112 kts 225°
2026-04-25 00:57 9.99734 -84.26896 4008 ft 111 kts 158°
2026-04-25 00:57 9.99284 -84.26279 3994 ft 115 kts 124°
2026-04-25 00:57 9.98873 -84.25606 3976 ft 109 kts 116°
2026-04-25 00:58 9.98655 -84.24896 3867 ft 105 kts 103°
2026-04-25 00:58 9.98537 -84.24143 3609 ft 109 kts 101°
2026-04-25 00:58 9.98522 -84.23350 3293 ft 115 kts 85°
2026-04-25 00:58 9.98752 -84.22594 3096 ft 110 kts 69°
2026-04-25 00:59 9.99012 -84.21899 2971 ft 96 kts 69°
2026-04-25 00:59 9.99141 -84.21540 2981 ft 19 kts 68°
2026-04-25 00:59 9.99221 -84.21338 2990 ft 39 kts 69°
2026-04-25 00:59 9.99308 -84.21156 3002 ft 0 kts 347°
2026-04-25 01:00 9.99382 -84.21146 3004 ft 22 kts 67°
2026-04-25 01:00 9.99439 -84.21010 3018 ft 19 kts 69°
2026-04-25 01:00 9.99479 -84.20913 3029 ft 13 kts 72°
2026-04-25 01:00 9.99531 -84.20869 3031 ft 13 kts 340°
2026-04-25 01:01 9.99611 -84.20899 3031 ft 12 kts 339°
2026-04-25 01:01 9.99689 -84.20924 3034 ft 11 kts 20°
2026-04-25 01:01 9.99723 -84.20865 3033 ft 8 kts 69°
2026-04-25 01:01 9.99760 -84.20842 3033 ft 6 kts 53°
2026-04-25 01:02 9.99756 -84.20834 3033 ft 0 kts 173°